Location: Blackrock Ranger Station
(36.0936°N, 118.2611°W)
Time: 07:50:45
(UTC-07:00)

AO-7 - Pass Details

Date: 20 February 2026
Orbit: 1440 x 1458 km, 102.0° (Epoch: 15 March)

Event Time Altitude Azimuth Distance (km) Brightness Sun altitude
Rises 18:29:11 0° 191° (S) 4,512 ? -10.7°
Reaches altitude 10° 18:32:19 10° 200° (SSW) 3,538 ? -11.4°
Maximum altitude 18:39:30 33° 261° (W) 2,235 ? -12.8°
Drops below altitude 10° 18:46:46 10° 323° (NW) 3,562 ? -14.3°
Sets 18:49:58 0° 333° (NNW) 4,546 ? -14.9°
